This is the latest recevied weather packets stored in our database for station/object SHLBYV-WX. If no packets are shown the sender has not sent any weather packets the latest 10 day(s).
| Time | Temp. | Humidity | Pressure | Rain* | Wind** | Luminosity | Snow |
|---|---|---|---|---|---|---|---|
| 1777290352 | 8.89° C | 82% | 986 hPa | 0 mm | - | - | - |
| 1777289465 | 8.33° C | 82% | 986 hPa | 0 mm | - | - | - |
| 1777288551 | 7.78° C | 82% | 986 hPa | 0 mm | - | - | - |
| 1777287678 | 7.78° C | 82% | 986 hPa | 0 mm | - | - | - |
| 1777286752 | 7.22° C | 80% | 987.6 hPa | 0 mm | - | - | - |
| 1777285865 | 7.22° C | 81% | 987.4 hPa | 0 mm | - | - | - |
| 1777284953 | 7.22° C | 81% | 987.4 hPa | 0 mm | - | - | - |
| 1777284082 | 7.78° C | 81% | 987.4 hPa | 0 mm | - | - | - |
| 1777283150 | 7.78° C | 76% | 987.6 hPa | 0 mm | - | - | - |
| 1777282266 | 7.78° C | 79% | 987.6 hPa | 0 mm | - | - | - |
| 1777281353 | 7.22° C | 79% | 987.6 hPa | 0 mm | - | - | - |
| 1777280473 | 7.78° C | 79% | 987.6 hPa | 0 mm | - | - | - |
| 1777279553 | 7.78° C | 74% | 986.9 hPa | 0 mm | - | - | - |
| 1777278666 | 7.78° C | 78% | 986.8 hPa | 0 mm | - | - | - |
| 1777277753 | 7.78° C | 78% | 986.8 hPa | 0 mm | - | - | - |
| 1777276877 | 7.78° C | 83% | 986.4 hPa | 0 mm | - | - | - |
| 1777275951 | 7.78° C | 79% | 987.1 hPa | 0 mm | - | - | - |
| 1777275066 | 8.33° C | 79% | 987.1 hPa | 0 mm | - | - | - |
| 1777274148 | 8.33° C | 79% | 987 hPa | 0 mm | - | - | - |
| 1777273279 | 8.33° C | 79% | 987 hPa | 0 mm | - | - | - |
| 1777272352 | 8.33° C | 63% | 987.2 hPa | 0 mm | - | - | - |
| 1777271467 | 8.33° C | 70% | 987.3 hPa | 0 mm | - | - | - |
| 1777270552 | 8.33° C | 70% | 987.3 hPa | 0 mm | - | - | - |
| 1777269681 | 8.33° C | 70% | 987.3 hPa | 0 mm | - | - | - |
| 1777268753 | 8.89° C | 67% | 987.3 hPa | 0 mm | - | - | - |
* Rain latest hour (hover to see other rain measurements)
** Current wind speed in m/s (hover to see current wind gust speed)